Home   Weather   Dąbrowa Górnicza   Past weeks

Flag for Poland Past Weather in Dąbrowa Górnicza, Poland — Yesterday and Last 2 Weeks

Now
34 °F

Scattered clouds.


Feels Like: 28 °F
Forecast: 16 / 30 °F
Wind: 7 mph from Southwest

Location: Katowice Airport

Current Time: Jan 21, 2017 at 2:47:24 pm

Latest Report: Jan 21, 2017 at 2:00 pm


Visibility: 4 mi

Pressure: 30.45 "Hg

Humidity: 81%

Dew Point: 28 °F

Location of Dąbrowa GórniczaLocation

Past Weather in Dąbrowa Górnicza — Graph

°F

Dąbrowa Górnicza Temperature Yesterday

Maximum temperature yesterday: 30 °F (at 4:00 pm)
Minimum temperature yesterday: 14 °F (at 12:00 am)
Average temperature yesterday: 24 °F

High & Low Weather Summary for the Past Weeks

 TemperatureHumidityPressure
High39 °F (Jan 13, 11:30 am)100% (Jan 15, 5:30 am)30.69 "Hg (Jan 15, 5:30 am)
Low-20 °F (Jan 7, 7:00 am)46% (Jan 9, 2:00 pm)29.30 "Hg (Jan 13, 2:00 pm)
Average18 °F83%30.16 "Hg
* Reported Jan 6 1:00 pm — Jan 21 1:30 pm, Dąbrowa Górnicza, Weather by CustomWeather, © 2017

Note: Actual official high and low records may vary slightly from our data, if they occured in-between our weather recording intervals... More about our weather records

Advertising

Dąbrowa Górnicza Weather History for the Previous 24 Hours

Scroll right to see more
 ConditionsComfort  
Time TempWeatherWind HumidityBarometerVisibility
1:30 pm
Sat, Jan 21
34 °FScattered clouds.6 mph81%30.45 "Hg4 mi
1:00 pm34 °FBroken clouds.2 mph81%30.45 "HgN/A
12:30 pm32 °FBroken clouds.5 mph87%30.48 "HgN/A
12:00 pm32 °FPartly sunny.7 mph87%30.48 "HgN/A
11:30 am32 °FPartly sunny.7 mph87%30.48 "HgN/A
11:00 am32 °FPartly sunny.6 mph93%30.48 "Hg5 mi
10:30 am30 °FIce fog.5 mph93%30.48 "Hg2 mi
10:00 am30 °FIce fog.6 mph93%30.48 "Hg3 mi
9:30 am30 °FIce fog.10 mph93%30.48 "Hg3 mi
9:00 am30 °FIce fog.8 mph93%30.48 "Hg1 mi
8:30 am30 °FIce fog.6 mph93%30.48 "Hg1 mi
8:00 am30 °FIce fog.7 mph93%30.48 "Hg1 mi
7:30 am30 °FLight freezing rain. Ice fog.7 mph93%30.45 "Hg1 mi
7:00 am30 °FLight freezing rain. Ice fog.7 mph93%30.45 "Hg1 mi
6:30 am30 °FLight freezing rain. Ice fog.7 mph93%30.45 "Hg1 mi
6:00 am30 °FLight freezing rain. Ice fog.8 mph93%30.45 "Hg1 mi
5:30 am30 °FLight freezing rain. Ice fog.8 mph93%30.45 "Hg1 mi
5:00 am30 °FLight freezing rain. Ice fog.7 mph93%30.45 "Hg1 mi
4:30 am30 °FLight freezing rain. Ice fog.8 mph93%30.45 "Hg1 mi
4:00 am30 °FLight freezing rain. Ice fog.9 mph93%30.45 "Hg1 mi
3:30 am30 °FLight freezing rain. Ice fog.12 mph93%30.45 "Hg1 mi
3:00 am30 °FIce fog.8 mph93%30.45 "Hg1 mi
2:30 am30 °FLight freezing rain. Ice fog.9 mph93%30.45 "Hg1 mi
2:00 am30 °FLight freezing rain. Ice fog.8 mph93%30.45 "Hg1 mi
1:30 am28 °FLight freezing rain. Ice fog.10 mph100%30.48 "Hg1 mi
1:00 am28 °FLight freezing rain. Ice fog.8 mph100%30.48 "Hg1 mi
12:30 am28 °FLight freezing rain. Ice fog.10 mph100%30.48 "Hg1 mi
12:00 am28 °FLight freezing rain. Ice fog.8 mph100%30.48 "Hg1 mi
11:30 pm
Fri, Jan 20
28 °FLight freezing rain. Ice fog.8 mph100%30.48 "Hg1 mi
11:00 pm28 °FLight freezing rain. Ice fog.8 mph100%30.48 "Hg1 mi
10:30 pm28 °FLight freezing rain. Ice fog.8 mph93%30.48 "Hg1 mi
10:00 pm28 °FLight freezing rain. Ice fog.9 mph93%30.48 "Hg1 mi
9:30 pm28 °FLow clouds.12 mph93%30.48 "Hg4 mi
9:00 pm28 °FMostly cloudy.8 mph93%30.48 "Hg4 mi
8:30 pm28 °FIce fog.8 mph100%30.48 "Hg2 mi
8:00 pm30 °FLight freezing rain. Ice fog.9 mph93%30.48 "Hg1 mi
7:30 pm30 °FLight freezing rain. Ice fog.9 mph93%30.48 "Hg1 mi
7:00 pm30 °FLight freezing rain. Ice fog.7 mph93%30.48 "Hg3 mi
6:30 pm30 °FMostly cloudy.8 mph86%30.48 "Hg4 mi
6:00 pm30 °FOvercast.6 mph86%30.48 "Hg4 mi
5:30 pm30 °FOvercast.8 mph80%30.48 "Hg4 mi
5:00 pm30 °FMostly cloudy.8 mph80%30.48 "Hg4 mi
4:30 pm30 °FMostly cloudy.8 mph80%30.51 "Hg4 mi
4:00 pm30 °FLow clouds.7 mph80%30.51 "Hg4 mi
3:30 pm28 °FMore clouds than sun.10 mph86%30.51 "Hg6 mi
3:00 pm28 °FMostly cloudy.12 mph86%30.51 "Hg4 mi
2:30 pm28 °FIce fog.9 mph86%30.51 "Hg3 mi
2:00 pm27 °FIce fog.8 mph100%30.51 "Hg2 mi
Weather by CustomWeather, © 2017

See weather overviewHow to use our weather pages